Regional Weather Roundup
Issued by NWS Wakefield, VA

Home | Current Version | Previous Version | Graphics & Text | Print | Product List | Glossary On
Versions: 1 2 3 4 5 6 7 8 9 10 11 12 13 14 15 16 17 18 19 20 21 22 23 24 25 26 27 28 29 30 31 32 33 34 35 36 37 38 39 40 41 42 43 44 45 46 47 48 49 50
000
ASUS41 KAKQ 300013
RWRAKQ

REGIONAL WEATHER ROUNDUP
NATIONAL WEATHER SERVICE WAKEFIELD VA
800 PM EDT SAT AUG 29 2015

Note: "fair" indicates few or no clouds below 12,000 feet with no
significant weather and/or obstructions to visibility. * = Denotes
station may not report precipitation (e.g., rain,snow,etc.),
thunder or fog.

VAZ042-051-052>054-056-300100-
NORTHERN VIRGINIA

CITY           SKY/WX    TMP DP  RH WIND       PRES   REMARKS
WASH NATIONAL  CLOUDY    81  66  60 S12       30.10S
DULLES         MOCLDY    79  63  57 S7        30.09F
FORT BELVOIR   MOCLDY    77  67  73 SE3       30.10R
QUANTICO       CLOUDY    78  67  68 S7        30.10S
FREDERICKSBRG* CLOUDY    78  67  70 S5        30.09S
STAFFORD*      CLOUDY    73  66  77 CALM      30.14S
WARRENTON      CLOUDY    77  67  70 S3        30.10S
CULPEPER*      CLOUDY    77  65  67 CALM      30.10S
MANASSAS*      PTCLDY    79  66  65 S5        30.10S
LEESBURG*      MOCLDY    82  68  61 S14       30.10S
WINCHESTER     PTCLDY    79  63  57 SE5       30.10S
FRONT ROYAL*   CLOUDY    79  63  57 S3        30.08S
LURAY*         FAIR      77  61  57 S3        30.11S
$$

VAZ048-049-060>072-079>083-300100-
CENTRAL AND SOUTH CENTRAL VIRGINIA

CITY           SKY/WX    TMP DP  RH WIND       PRES   REMARKS
RICHMOND       CLOUDY    78  64  61 SE7       30.12R
CHESTERFIELD*  FAIR      75  57  53 CALM      30.13S
PETERSBURG*    CLOUDY    77  70  80 CALM      30.12F
HANOVER        CLOUDY    74  65  73 SE3       30.13R
TAPPAHANNOCK*  CLOUDY    74  61  62 CALM      30.13R
QUINTON*       FAIR      75  65  70 CALM      30.11S
CHARLOTTSVILLE MOCLDY    77  63  61 S7        30.11S
GORDONSVILLE*  FAIR      73  67  82 CALM      30.10S
ORANGE*        CLOUDY    77  64  65 CALM      30.12S
LOUISA*        MOCLDY    77  64  65 S3        30.11S
BUMPASS*       FAIR      74  65  73 SE3       30.11S
FARMVILLE*     MOCLDY    78  62  57 CALM      30.11S
CREWE*         FAIR     N/A N/A N/A CALM      30.12S
FORT PICKETT*  FAIR      73  65  78 CALM      30.12S
CHASE CITY*    FAIR      76  64  66 CALM      30.12S
CLARKSVILLE*   FAIR      73  64  73 CALM      30.12S
SOUTH HILL*    MOCLDY    73  65  77 CALM      30.18S
LAWRENCEVILLE* FAIR      72  64  78 CALM      30.12S
EMPORIA*       PTCLDY    72  64  78 E9        30.14S
$$

VAZ088>098-300100-
SOUTHEAST VIRGINIA

CITY           SKY/WX    TMP DP  RH WIND       PRES   REMARKS
NORFOLK        CLOUDY    76  61  59 E5        30.14R
VIRGINIA BEACH CLOUDY    77  62  59 E3        30.13R
NORFOLK NAVAL  CLOUDY    76  61  59 SE5       30.15R
WEST POINT*    CLOUDY    76  62  60 SE9       30.13F
SALUDA*        FAIR      74  64  70 SE6       30.12S
NEWPORT NEWS   CLOUDY    75  62  64 E7        30.13S
LANGLEY AFB    CLOUDY    76  62  62 SE7       30.13R
FORT EUSTIS    CLOUDY    75  62  63 SE5       30.11S
WILLIAMSBURG*  CLOUDY    77  64  65 E6        30.13S
HR EXEC AP*      N/A     73  61  64 E5        30.15S
FRANKLIN*      PTCLDY    74  63  67 CALM      30.14S
WAKEFIELD      MOCLDY    74  62  66 CALM      30.13S
$$

VAZ020-022-025-037-045-300100-
WEST CENTRAL AND SOUTHWEST VIRGINIA

CITY           SKY/WX    TMP DP  RH WIND       PRES   REMARKS
STAUNTON*      CLOUDY    80  61  52 S6        30.14S
WAYNESBORO*    FAIR      77  62  58 S5        30.14S
HOT SPRINGS VA CLEAR     67  59  74 SW7       30.25F
LYNCHBURG      MOCLDY    73  61  65 CALM      30.14F
DANVILLE       MOCLDY    73  64  73 CALM      30.13S
SOUTH BOSTON*  FAIR      75  64  67 CALM      30.12S
MARTINSVILLE   CLOUDY    72  67  82 CALM      30.17S
ROANOKE        MOCLDY    77  60  55 S3        30.16S
BLACKSBURG     PTCLDY    73  64  74 S3        30.22S
DUBLIN*        PTCLDY    75  63  66 S6        30.21R
MARION*        MOCLDY    72  65  79 CALM      30.24S
HILLSVILLE*    MOCLDY    69  60  72 S5        30.22S
RICHLANDS*     FAIR      72  30  21 SE3       30.21S
WISE*          PTCLDY    73  57  56 CALM      30.22S
ABINGDON*      MOCLDY    75  61  60 CALM      30.18S
$$

MDZ021>025-VAZ099-100-300100-
SOUTHERN MARYLAND AND THE DELMARVA PENINSULA

CITY           SKY/WX    TMP DP  RH WIND       PRES   REMARKS
PATUXENT RIVER CLOUDY    74  63  68 S7        30.11F
BAY BRIDGE APT   N/A     79  61  53 S8        30.10F
LEONARDTOWN    CLOUDY    73  61  64 CALM      30.13F
DOVER          PTCLDY    74  65  72 SE8       30.10S
GEORGETOWN     MOCLDY    73  61  65 S7        30.13F
EASTON         NOT AVBL
CAMBRIDGE      CLOUDY    77  63  61 S5        30.12S
SALISBURY      MOCLDY    72  63  73 SE5       30.13S
OCEAN CITY     MOCLDY    76  60  57 S6        30.14S
WALLOPS ISLAND CLOUDY    74  62  66 S6        30.14F
ACCOMACK*      CLOUDY    68  50  52 SE5       30.13S
$$

NCZ012>017-030>032-300100-
NORTH CENTRAL AND EASTERN NORTH CAROLINA

CITY           SKY/WX    TMP DP  RH WIND       PRES   REMARKS
ROANOKE RAPIDS FAIR      75  61  60 CALM      30.12S
RALEIGH        CLOUDY    79  60  52 CALM      30.13R
ELIZABETH CITY CLOUDY    75  65  70 NE7       30.13S
AHOSKIE*       MOCLDY    74  63  67 CALM      30.13S
EDENTON*       CLOUDY    73  64  74 NE3       30.12F
CURRITUCK*     CLOUDY    76  61  58 NE5       30.13F
KILL DEVIL HLS CLOUDY    76  65  68 NE6       30.10F
MANTEO         CLOUDY    76  67  73 NE9       30.12S
CAPE HATTERAS  PTCLDY    76  71  85 NE8       30.09S
TARBORO*       FAIR      75  64  69 E3        30.13S
GOLDSBORO      MOCLDY    78  64  62 E2        30.11R
WASHINGTON     PTCLDY    73  64  73 CALM      30.11F
GREENVILLE     MOCLDY    77  64  65 E3        30.13S
NEW BERN       CLEAR     76  64  66 E5        30.12F
WILMINGTON     PTCLDY    77  68  73 N3        30.10S
$$

VAZ048-300100-
ELSEWHERE

CITY           SKY/WX    TMP DP  RH WIND       PRES   REMARKS
HARRISBURG PA  MOCLDY    74  67  78 SE6       30.08S
BALTIMORE      MOCLDY    76  64  66 SE6       30.09S
ANNAPOLIS      MOCLDY    77  63  61 S14G20    30.10S
ANDREWS AFB    MOCLDY    77  65  68 SE8       30.10S
PHILADELPHIA   PTCLDY    81  61  50 SW14      30.11R
HENDERSON NC   MOCLDY    76  61  60 CALM      30.13R
GREENSBORO     CLOUDY    80  56  43 CALM      30.14S
ROCKY MOUNT    MOCLDY    77  59  53 CALM      30.12S
$$

VAZ100-300100-
MARINE

STATION/POSITION TIME  TEMP    WIND        PRES    WAVE   SWELL
                       AIR SEA DIR/SP/G            HT/PER HT/PER
                 (UTC) (F)     (DEG/KT/KT) (MB)    (FT/S) (FT/S)
15NM E FENWICK I 2350   76 79  160/ 10/ 12 1020.4F   3/11   3/11
THOMAS POINT MD  0000   78 79  170/ 20/ 21 1019.6F
GOOSES REEF MD   0000   79 79  180/ 16/ 19 1020.3F
POTOMAC MD       0000   78 80  180/ 14/ 16 1019.0S   1/ 3
STINGRAY PT      2300   78 80  140/ 12/ 14 1020.5F   1/ 2
JAMESTOWN VA     0000   78 82  120/ 10/ 14   N/A
CHESAPEAKE LGHT  2300   76      70/ 11/ 12 1020.9F
CAPE HENRY BUOY  2328      79                N/A     4/11   2/11
1ST LANDING BUOY 0000      79              1020.0R   2/ 4
CAPE CHARLES BUO 2326      79                N/A     3/11   3/11
OFFSHORE WE BUOY 2311      78                N/A     4/11   3/11
64NM E OF VA BCH 2350   78 78   60/ 14/ 17 1019.3S   4/11   3/11
44100 DUCK FRF   2324      78                N/A     5/11   2/11
44056 DUCK FRF   2311      78                N/A     4/11   2/11
DIAMOND SHLS NC  2350   78 82   30/ 19/ 21 1018.1F   5/11   3/11
CAPE LOOKOUT NC  0000   78      20/  9/ 13 1019.0R
$$



USA.gov is the U.S. government's official web portal to all federal, state and local government web resources and services.